Regional Weather Roundup
Issued by NWS

Home | Current Version | Previous Version | Graphics & Text | Print | Product List | Glossary On
Versions: 1 2 3 4 5 6 7 8 9 10 11 12 13 14 15 16 17 18 19 20 21 22 23 24 25 26 27 28 29 30 31 32 33 34 35 36 37 38 39 40 41 42 43 44 45 46 47 48 49 50
000
ASUS43 KLOT 310903
RWRIL

ILLINOIS REGIONAL WEATHER ROUNDUP
NATIONAL WEATHER SERVICE CHICAGO/ROMEOVILLE IL
400 AM CDT TUE MAY 31 2016

NOTE: "FAIR" INDICATES FEW OR NO CLOUDS BELOW 12,000 FEET WITH NO
SIGNIFICANT WEATHER AND/OR OBSTRUCTIONS TO VISIBILITY.

* THESE STATIONS ARE NOT UNDER NWS QUALITY CONTROL. THEY ALSO MAY NOT
  REPORT WEATHER SUCH AS PRECIPITATION OR FOG.

ILZ001-002-007-009-015-016-024-311000-
NORTHWEST ILLINOIS

CITY           SKY/WX    TMP DP  RH WIND       PRES   REMARKS
MOLINE         CLOUDY    68  63  84 CALM      29.94S
STERLING*      MOCLDY    68  61  78 E7        29.96S
$$

ILZ003-004-008-010-011-017-018-311000-
NORTH CENTRAL ILLINOIS

CITY           SKY/WX    TMP DP  RH WIND       PRES   REMARKS
ROCKFORD       CLOUDY    64  56  75 SE6       30.00R THUNDER
FREEPORT*      TSTM      64  58  82 E8        30.01R
ROCHELLE*      CLOUDY    67  57  71 CALM      29.99R
$$

ILZ005-006-012>014-019>023-311000-
NORTHEAST ILLINOIS

CITY           SKY/WX    TMP DP  RH WIND       PRES   REMARKS
CHICAGO-OHARE  MOCLDY    66  55  67 SE3       29.98F
CHICAGO-MIDWAY MOCLDY    69  55  60 E7        29.97F
AURORA         CLOUDY    65  57  75 CALM      29.98S
LANSING*       PTCLDY    65  57  75 E3        29.98F
WAUKEGAN       PTCLDY    64  55  72 E5        29.98F
DUPAGE AIRPORT MOCLDY    66  54  65 E5        29.98S
WHEELING       CLOUDY    64  55  72 CALM      29.99F
NORTHERLY ISL    N/A     62  56  80 CALM        N/A
NORTHERLY ISL    N/A     62  56  80 CALM        N/A
$$

LMZ740>746-311000-
SOUTHERN LAKE MICHIGAN

STATION/POSITION SKY/WX   TEMP    WIND        PRES    VSBY  WAVE
                          AIR SEA DIR/SP/G                  HT/PER
                          (F)     (DEG/KT/KT) (MB)    (MI)  (FT/S)
SOUTHERN BUOY              60 56  120/  4/  6 1015.7          0
WILMETTE HARBOR            60 57   30/  2/  2   N/A           0
HARRISON CRIB              65     160/  6/  8   N/A
BURNHAM HARBOR             62      CALM  /  3   N/A
CALUMET HARBOR             64      70/  2/  6 1015.1F
BURNS HARBOR               67      60/  5/ 10 1016.3S
MICHIGAN CITY              68      80/  4/  7   N/A
MICHIGAN CITY 6N           63 62  180/  2/  4   N/A           0
ST. JOSEPH                 67 64   60/  4/  6   N/A           0
$$

ILZ025>027-034>036-040-047-049-050-058-095>099-311000-
WEST-CENTRAL ILLINOIS

CITY           SKY/WX    TMP DP  RH WIND       PRES   REMARKS
QUINCY         PTCLDY    67  61  81 CALM      29.96S
MACOMB*          N/A     67  63  89 CALM      29.99S
PITTSFIELD*    MOCLDY    66  64  93 CALM      29.99R
$$

ILZ028>032-037-038-041>044-048-051>054-059>061-311000-
CENTRAL ILLINOIS

CITY           SKY/WX    TMP DP  RH WIND       PRES   REMARKS
BLOOMINGTON    PTCLDY    72  60  65 W3        29.98F
DECATUR        CLOUDY    70  60  70 CALM      29.98F
PEORIA         PTCLDY    67  61  81 CALM      29.96S
SPRINGFIELD    PTCLDY    66  61  84 CALM      29.97F
TAYLORVILLE    NOT AVBL
$$

ILZ033-039-045-046-055>057-062-063-311000-
EAST-CENTRAL ILLINOIS

CITY           SKY/WX    TMP DP  RH WIND       PRES   REMARKS
CHAMPAIGN      MOCLDY    67  61  81 CALM      29.97F
MATTOON        CLOUDY    66  59  78 S3        29.97S
$$

ILZ079-100>102-311000-
SOUTHWEST ILLINOIS

CITY           SKY/WX    TMP DP  RH WIND       PRES   REMARKS
BELLEVILLE     CLOUDY    70  66  88 CALM      29.96S
CAHOKIA*       CLOUDY    69  64  84 CALM      29.97S
SPARTA*        CLOUDY    69  64  85 CALM      29.99R
$$

ILZ064>066-069>071-074>076-080>082-084>086-088>090-092>094-311000-
SOUTH-CENTRAL ILLINOIS

CITY           SKY/WX    TMP DP  RH WIND       PRES   REMARKS
CARBONDALE     CLOUDY    68  65  90 CALM      29.97R
EFFINGHAM*     CLOUDY    66  66 100 CALM      29.99S
MT. VERNON     CLOUDY    66  63  88 CALM      29.97F
SALEM*         CLOUDY    71  65  80 CALM      29.97F
$$

ILZ067-068-072-073-078-083-087-091-311000-
SOUTHEAST ILLINOIS

CITY           SKY/WX    TMP DP  RH WIND       PRES   REMARKS
LAWRENCEVILLE  CLOUDY    66  64  93 CALM      29.98R
FLORA*         CLOUDY    69  66  90 CALM      29.97S
HARRISBURG*    CLOUDY    67  67  98 CALM      29.97S
ROBINSON*      CLOUDY    64  63  99 CALM      29.98S
$$

ABBREVIATIONS USED IN REMARKS
   TC - TEMPERATURE IN CELSIUS
  WCI - WIND CHILL INDEX
   HX - HEAT INDEX
  VSB - VISIBILITY
$$





USA.gov is the U.S. government's official web portal to all federal, state and local government web resources and services.